Weather History for Calgary Springbank, AB

Change the Weather History Date:

Wednesday, November 14, 2012

  Actual Average Record
Temperature  
Mean Temperature 30 °F -  
Max Temperature 40 °F 31 °F 59 °F (2001)
Min Temperature 19 °F 11 °F 5 °F (1997)
Degree Days  
Heating Degree Days 36    
Moisture  
Dew Point 19 °F    
Average Humidity 61    
Maximum Humidity 86    
Minimum Humidity 41    
Precipitation  
Precipitation 0.00 in - - ()
Sea Level Pressure  
Sea Level Pressure 30.09 in    
Wind  
Wind Speed 11 mph ()    
Max Wind Speed 21 mph    
Max Gust Speed 28 mph    
Visibility 15.0 miles    
Events      
Averages and records for this station are not official NWS values.
T = Trace of Precipitation, MM = Missing Value Source: Averaged Metar Reports

Daily Weather History Graph

Daily Weather History Graph

Search for Another Location

Airport:

Trip Planner

Search our weather history database for the weather conditions in past years. The results will help you decide how hot, cold, wet, or windy it might be!

Date:

Astronomy

Nov. 14, 2012 Rise Set
Actual Time 7:53 AM MST 4:50 PM MST
Civil Twilight 7:16 AM MST 5:26 PM MST
Nautical Twilight 6:36 AM MST 6:06 PM MST
Astronomical Twilight 5:57 AM MST 6:45 PM MST
Moon 8:54 AM MST (11/14) 5:34 PM MST (11/14)
Length of Visible Light 10h 09m
Length of Day
8h 56m
New Moon, 1% of the Moon is Illuminated
Nov 14
New Moon
Nov 20
First Quarter
Nov 28
Full
Dec 6
Last Quarter
Dec 13
New

Hourly Weather History & Observations

Time (MST) Temp. Windchill Dew Point Humidity Pressure Visibility Wind Dir Wind Speed Gust Speed Precip Events Conditions
5:00 AM 34 °F - 19 °F 41% 29.95 in 15 mi West 20.7 mph - -   Scattered Clouds
5:00 AM 33.8 °F 22.5 °F 19.4 °F 56% 29.95 in 15.0 mi West 19.6 mph 27.6 mph N/A   Scattered Clouds
6:00 AM 35.6 °F 25.9 °F 17.6 °F 48% 29.96 in 15.0 mi West 16.1 mph - N/A   Scattered Clouds
7:00 AM 32.0 °F 20.1 °F 19.4 °F 60% 29.98 in 15.0 mi West 19.6 mph - N/A   Scattered Clouds
8:00 AM 28.4 °F 16.6 °F 17.6 °F 64% 30.02 in 30.0 mi West 16.1 mph - N/A   Mostly Cloudy
9:00 AM 30.2 °F 20.2 °F 17.6 °F 60% 30.03 in 30.0 mi West 12.7 mph - N/A   Scattered Clouds
10:00 AM 28.4 °F 20.4 °F 17.6 °F 64% 30.06 in 30.0 mi NW 8.1 mph - N/A   Scattered Clouds
11:00 AM 34 °F - 19 °F 41% 30.08 in 28 mi NW 4.6 mph - -   Scattered Clouds
11:00 AM 33.8 °F 29.6 °F 19.4 °F 56% 30.08 in 30.0 mi NW 4.6 mph - N/A   Mostly Cloudy
12:00 PM 41.0 °F 35.2 °F 21.2 °F 45% 30.08 in 30.0 mi West 9.2 mph - N/A   Scattered Clouds
1:00 PM 41.0 °F 34.7 °F 21.2 °F 45% 30.08 in 30.0 mi West 10.4 mph - N/A   Partly Cloudy
2:00 PM 39.2 °F 32.5 °F 19.4 °F 45% 30.11 in 30.0 mi West 10.4 mph - N/A   Scattered Clouds
3:00 PM 39.2 °F 34.2 °F 19.4 °F 45% 30.13 in 30.0 mi West 6.9 mph - N/A   Scattered Clouds
3:39 PM 35.6 °F 28.6 °F 21.2 °F 56% 30.14 in 30.0 mi South 9.2 mph - N/A   Scattered Clouds
4:00 PM 33.8 °F 27.0 °F 21.2 °F 60% 30.16 in 30.0 mi SW 8.1 mph - N/A   Scattered Clouds
5:00 PM 29 °F - 22 °F 65% 30.17 in 28 mi SSE 11.5 mph - -   Scattered Clouds
5:00 PM 28.4 °F 18.5 °F 21.2 °F 74% 30.17 in 30.0 mi South 11.5 mph - N/A   Scattered Clouds
6:00 PM 24.8 °F 20.5 °F 19.4 °F 80% 30.18 in 15.0 mi SSE 3.5 mph - N/A   Partly Cloudy
7:00 PM 21.2 °F 10.9 °F 17.6 °F 86% 30.21 in 15.0 mi South 9.2 mph - N/A   Clear
8:00 PM 19.4 °F 10.4 °F 15.8 °F 86% 30.23 in 15.0 mi South 6.9 mph - N/A   Clear
9:00 PM 23.0 °F 17.0 °F 17.6 °F 80% 30.22 in 15.0 mi SSW 4.6 mph - N/A   Clear
10:00 PM 19.4 °F 12.8 °F 12.2 °F 74% 30.06 in 15.0 mi NW 4.6 mph - N/A   Clear